GFSFLT2_con_mlcape_123.txt.gz
CAPE
1956 1763 1513 1249 1284 1621 1854 1965 1860 1796 1786 1712 1684 1719 1571 1481 1649 1801 1826 1772 1831 1777 1344 1191 1096 1051 1040 988 1056 930 711 421
2567 2147 1660 1253 1209 1442 1681 1869 1873 1881 1873 1848 1713 1735 1617 1514 1670 1807 1831 1759 1750 1611 1232 1140 1082 974 914 837 930 857 732 650
2806 2573 2038 1363 1174 1234 1463 1604 1694 1814 1915 1937 1860 1849 1716 1586 1631 1782 1800 1749 1723 1575 1227 1066 1028 973 889 812 807 648 702 685
2855 2685 2234 1755 1412 1218 1197 1328 1516 1644 1806 1926 1960 1825 1679 1624 1630 1708 1751 1692 1745 1593 1306 1116 1041 904 832 840 601 580 800 680
2262 2594 2596 2288 1918 1571 1095 1142 1263 1532 1799 1835 1975 1920 1805 1740 1671 1708 1844 1689 1585 1519 1340 1148 1081 997 859 766 476 440 842 720
1425 2363 2172 2050 2350 2152 1599 1097 1035 1222 1741 1848 1877 1950 2220 1962 1842 1667 1683 1665 1439 1469 1363 1189 1070 1029 1115 863 512 250 734 672
66 1326 1546 1959 1873 1824 1970 1633 1217 1225 1344 2043 1984 2003 2146 2214 1911 1851 1745 1679 1602 1411 1364 1273 1013 824 1199 1152 766 462 781 830
0 0 159 1457 1115 1071 1409 1643 1846 1553 1450 1525 2169 1838 1962 2062 1676 1870 1865 1754 1652 1568 1470 1320 1052 790 1002 1160 881 770 962 836
0 0 0 0 0 8 694 951 1250 1371 1666 1754 1764 2057 1733 2072 1988 1737 1866 1820 1679 1652 1565 1489 1269 975 1151 1230 1114 1015 935 1055
0 0 0 0 0 0 0 0 107 975 915 1538 2109 1991 2109 1800 2193 1831 2063 1761 1762 1703 1672 1665 1552 1286 1201 1360 1155 1196 1152 1102
0 0 0 0 0 0 0 0 0 10 864 1196 1307 1443 1798 2147 2055 2066 1834 2020 1852 1804 1777 1708 1629 1468 1353 1098 1120 1223 1150 1151
0 0 0 0 0 0 0 0 0 0 27 810 1045 1215 1490 1457 2132 2123 2095 2094 1988 1759 1700 1717 1649 1487 1428 1312 1156 1206 1276 1169
0 0 0 0 0 0 0 0 0 0 0 0 898 1029 1094 1696 1623 1973 1999 1789 2082 1764 1691 1577 1610 1621 1417 1342 1116 1273 1316 1228
0 0 0 0 0 0 0 0 0 0 0 0 0 95 1371 1384 1213 1284 1952 1770 1527 1959 1758 1671 1657 1664 1472 1337 1291 1370 1346 1203
0 0 0 0 0 0 0 0 0 0 0 0 0 0 182 1294 1235 981 1504 1922 1640 1491 1947 1785 1652 1559 1383 1139 998 837 1085 1074
0 0 0 0 0 0 0 0 0 0 0 0 0 0 0 5 1110 1313 976 1492 1948 1412 1760 1876 1547 1433 1311 1112 699 539 540 578
0 0 0 0 0 0 0 0 0 0 0 0 0 0 0 0 29 1056 1394 1351 1777 1493 1381 1698 1510 1339 1336 1248 1024 602 466 436
0 0 0 0 0 0 0 0 0 0 0 0 0 0 0 0 0 28 1045 1414 1444 1587 1547 1250 1228 1052 1264 1324 1296 1082 737 600
0 0 0 0 0 0 0 0 0 1 0 0 0 0 0 0 0 0 215 1082 1417 1556 1415 869 461 497 903 1402 1312 1259 1038 764
1 1 1 0 0 0 0 1 1 1 0 1 1 1 1 1 0 0 1 404 1126 1218 1179 883 153 2 279 838 1007 1149 1061 1022

GFSFLT2_con_mlcape_126.txt.gz
CAPE
2006 1740 1468 1305 1268 1433 1764 1831 1790 1751 1547 1311 1491 1473 1292 1248 1289 1486 1497 1509 1659 1625 1400 1140 1054 1088 1164 1139 1107 736 60 7
2004 1868 1667 1483 1330 1408 1545 1856 1796 1744 1680 1483 1508 1540 1427 1307 1313 1489 1509 1515 1575 1533 1287 1151 1094 986 991 1019 983 951 785 488
2289 2055 1859 1590 1303 1334 1587 1711 1840 1808 1796 1727 1609 1707 1603 1401 1356 1448 1503 1483 1512 1425 1186 1055 1017 899 833 869 860 809 795 660
2567 2484 2177 1739 1383 1242 1355 1592 1710 1826 1891 1874 1799 1732 1660 1507 1366 1410 1493 1474 1458 1363 1143 942 926 810 682 762 653 649 643 764
1592 2402 2278 1962 1579 1198 1044 1253 1470 1493 1697 1811 1826 1723 1693 1594 1436 1476 1524 1523 1508 1414 1183 986 872 761 596 580 480 496 758 596
716 525 1437 1918 2015 1664 1411 1088 1033 1151 1436 1650 1645 1685 1617 1587 1435 1372 1435 1473 1319 1362 1135 1034 919 822 636 423 467 361 562 789
0 0 0 0 3 164 1208 1443 1203 1046 1262 1537 1665 1674 1621 1576 1532 1358 1418 1445 1228 1141 1063 985 925 839 758 586 424 311 426 738
0 0 0 0 0 0 0 0 333 1105 1092 1379 1414 1421 1697 1844 1649 1557 1479 1451 1345 1118 1013 1000 1022 859 705 750 832 461 546 771
0 0 0 0 0 0 0 0 0 0 480 1321 1336 1026 1282 1507 1854 1829 1712 1546 1383 1288 1116 1022 999 906 665 706 988 790 669 810
0 0 0 0 0 0 0 0 0 0 0 0 341 681 688 946 1400 1753 1753 1541 1462 1379 1277 1098 1021 938 724 655 850 783 697 820
0 0 0 0 0 0 0 0 0 0 0 0 0 88 372 305 988 1464 1390 1446 1554 1492 1293 1197 1039 1050 869 755 916 866 841 794
0 0 0 0 0 0 0 0 0 0 0 0 0 0 0 27 482 808 1040 1443 1363 1489 1355 1274 1156 1098 1099 832 912 885 876 907
0 0 0 0 0 0 0 0 0 0 0 0 0 0 0 0 241 5 59 982 1122 1376 1410 1406 1338 1280 1184 965 878 727 844 940
0 0 0 0 0 0 0 0 0 0 0 0 0 0 0 0 0 389 6 732 796 1050 1142 1180 1259 1029 1140 1075 942 929 834 885
0 0 0 0 0 0 0 0 0 0 0 0 0 0 0 0 0 0 239 1 19 727 1045 957 664 852 854 858 802 753 782 786
0 0 0 0 0 0 0 0 0 0 0 0 0 0 0 0 0 0 0 342 460 651 817 878 839 673 717 695 440 425 570 584
0 0 0 0 0 0 0 0 0 0 0 0 0 0 0 0 0 0 0 0 298 380 574 690 854 828 729 488 397 274 264 214
0 0 0 0 0 0 0 0 0 0 0 0 0 0 0 0 0 0 0 0 0 189 570 790 691 663 768 725 482 338 336 256
0 1 0 0 0 0 0 0 0 1 1 0 0 0 0 0 0 0 0 0 0 0 275 519 453 434 253 332 466 431 422 330
0 0 0 0 0 0 0 1 1 1 1 1 1 0 0 0 0 0 0 0 0 0 0 369 463 401 326 4 47 31 155 450

GFSFLT2_con_mlcape_129.txt.gz
CAPE
1963 1713 1537 1422 1450 1505 1540 1670 1651 1640 1560 1332 1334 1256 1156 1160 1349 1591 1429 1357 1515 1619 1262 870 885 955 981 961 951 703 54 195
1987 1783 1585 1500 1501 1576 1658 1769 1782 1740 1721 1504 1453 1420 1292 1253 1366 1588 1497 1377 1330 1316 1145 879 856 858 887 960 902 603 4 148
2069 1908 1796 1632 1497 1550 1757 1948 1961 1870 1825 1721 1543 1642 1485 1420 1470 1557 1628 1479 1423 1305 1082 930 851 818 708 838 878 665 583 499
2312 2053 1981 1844 1616 1502 1585 1817 2015 1942 1852 1805 1799 1721 1657 1556 1517 1534 1677 1555 1498 1364 1131 920 849 717 671 698 691 619 650 618
6 290 983 1335 1554 1339 1261 1460 1596 1636 1712 1800 1818 1673 1627 1697 1540 1521 1649 1667 1592 1454 1152 874 750 601 548 472 511 501 568 493
0 0 0 0 0 6 679 1149 1202 1225 1303 1538 1403 1454 1520 1623 1563 1406 1523 1624 1520 1399 1094 904 703 608 488 351 406 328 350 540
0 0 0 0 0 0 0 0 3 686 1231 1319 1402 1473 1518 1474 1624 1471 1443 1600 1492 1329 1148 883 717 611 517 342 317 236 203 600
0 0 0 0 0 0 0 0 0 0 33 192 657 997 1125 1276 1515 1560 1481 1510 1352 1212 1137 873 795 682 594 487 318 292 166 335
0 0 0 0 0 0 0 0 0 0 0 0 0 0 403 965 1055 1461 1338 1552 1391 1179 1094 967 885 696 622 543 449 381 218 100
0 0 0 0 0 0 0 0 0 0 0 0 0 0 0 0 871 1005 1277 974 1282 1392 1229 1039 929 750 673 524 471 646 510 234
0 0 0 0 0 0 0 0 0 0 0 0 0 0 0 0 57 399 141 488 816 919 1120 1083 1008 821 684 591 440 523 717 583
0 0 0 0 0 0 0 0 0 0 0 0 0 0 0 0 0 1 0 42 635 750 841 1008 1037 942 812 695 582 416 542 627
0 0 0 0 0 0 0 0 0 0 0 0 0 0 0 0 0 0 0 49 81 342 761 1018 906 835 729 673 645 445 498 664
0 0 0 0 0 0 0 0 0 0 0 0 0 0 0 0 0 0 0 1 76 89 450 545 669 829 591 779 754 731 479 587
0 0 0 0 0 0 0 0 0 0 0 0 0 0 0 0 0 0 0 0 7 0 61 319 442 614 691 406 365 454 660 627
0 0 0 0 0 0 0 0 0 0 0 0 0 0 0 0 0 0 0 0 0 5 21 49 68 219 453 380 246 207 328 348
0 0 0 0 0 0 0 0 0 0 0 0 0 0 0 0 0 0 0 0 0 0 10 4 12 92 249 343 336 190 182 212
0 0 0 1 0 0 0 0 0 0 0 1 1 0 0 0 0 0 0 0 0 1 1 24 58 159 308 344 270 275 120 140
0 0 0 0 0 0 0 0 0 1 1 1 1 1 1 0 0 1 0 0 0 0 0 1 4 287 374 252 239 260 246 132
0 0 0 0 1 1 1 2 4 2 2 2 0 1 1 0 0 0 0 1 0 0 0 0 0 5 222 353 319 329 250 137

GFSFLT2_con_mlcape_132.txt.gz
CAPE
1713 1669 1700 1700 1737 1758 1650 1691 1701 1671 1510 1488 1599 1548 1413 1280 1401 1634 1506 1410 1751 1723 1321 879 823 1029 950 1014 1076 618 738 911
1765 1640 1550 1499 1528 1649 1692 1703 1853 1877 1849 1730 1630 1691 1494 1328 1388 1626 1544 1365 1567 1699 1328 875 833 971 938 888 934 696 91 484
1445 1539 1501 1420 1399 1481 1635 1777 1556 2044 1977 1925 1741 1721 1674 1488 1434 1514 1574 1430 1428 1500 1325 929 826 881 930 895 863 698 62 23
0 13 143 767 1232 1273 1260 1395 1547 1575 1736 1812 1813 1718 1671 1651 1509 1490 1563 1519 1505 1405 1244 1001 848 757 795 895 834 662 444 287
0 0 0 0 0 20 554 1187 1316 1489 972 1188 1661 1645 1403 1553 1564 1447 1431 1594 1543 1540 1318 992 865 732 616 618 666 638 504 543
0 0 0 0 0 0 0 0 4 650 1020 861 846 984 1188 1226 1442 1458 1397 1494 1474 1433 1244 1003 825 717 571 413 450 463 455 491
0 0 0 0 0 0 0 0 0 0 18 2 357 836 956 954 1150 1239 1276 1343 1420 1225 1084 1008 773 626 558 419 329 314 343 308
0 0 0 0 0 0 0 0 0 0 0 0 0 0 61 938 1055 1127 1067 1203 1395 1210 1040 982 641 538 531 444 371 264 283 243
0 0 0 0 0 0 0 0 0 0 0 0 0 0 0 0 43 544 715 1080 1175 1051 999 760 698 478 638 498 427 324 219 217
0 0 0 0 0 0 0 0 0 0 0 0 0 0 0 0 0 0 0 7 798 945 878 785 609 559 670 493 455 391 313 214
0 0 0 0 0 0 0 0 0 0 0 0 0 0 0 0 0 0 4 0 0 163 657 721 645 562 539 701 355 388 352 339
0 0 0 0 0 0 0 0 0 0 0 0 0 0 0 0 0 0 0 0 0 0 12 311 566 581 525 435 338 344 288 343
0 0 0 0 0 0 0 0 0 0 0 0 0 0 0 0 0 0 0 0 0 1 0 67 58 272 335 346 277 256 254 348
0 0 0 0 0 0 0 0 0 0 0 0 0 0 0 0 0 0 0 0 0 0 0 0 0 26 364 295 254 287 213 286
0 0 0 0 0 0 0 0 0 0 0 0 0 0 0 0 0 0 0 0 0 0 1 16 0 42 46 281 143 110 332 325
0 0 0 0 0 0 0 1 2 0 0 0 0 0 0 0 0 0 0 0 0 0 0 39 57 0 37 139 332 48 88 133
0 0 0 0 0 0 0 0 0 0 0 0 0 1 0 0 0 0 0 1 0 0 0 0 1 1 4 45 57 7 29 162
0 0 0 0 1 1 0 0 0 0 0 0 1 0 0 0 0 0 0 0 0 1 3 0 4 1 0 0 9 0 3 112
0 0 1 0 0 1 1 1 1 4 3 2 1 2 1 0 0 0 0 0 0 0 0 0 0 3 2 0 8 70 43 90
0 1 2 0 0 0 0 1 1 3 4 2 2 2 1 4 2 1 0 0 0 0 1 0 0 0 1 3 12 13 144 124